{"data":{"norad_id":59031,"intl_designator":"2024-038J","name":"STARLINK-31211","alt_names":[],"object_type":"PAYLOAD","status":"ACTIVE","operator":null,"country":"US","launch_date":"2024-02-25","launch_site_code":"AFETR","launch_vehicle":null,"mission":null,"orbit_class":"UNKNOWN","rcs_meters":null,"size_class":null,"mass_kg":null,"dimensions":null,"purposes":["comms"],"wikipedia_slug":null,"has_3d_model":false,"image_url":null,"decayed_at":null,"tle_current":{"epoch":"2026-05-24T19:33:09.642816Z","epoch_age_seconds":101270,"freshness":"FRESH","line1":"1 59031U 24038J   26144.81469494  .00001773  00000+0  73943-4 0  9994","line2":"2 59031  43.0016 316.8350 0001415 274.2793  85.7896 15.27578682126299","mean_motion":15.27578682,"eccentricity":0.0001415,"inclination_deg":43.0016,"raan_deg":316.835,"arg_perigee_deg":274.2793,"mean_anomaly_deg":85.7896,"bstar":7.3943e-5,"rev_number":12629,"period_min":94.266830047318,"perigee_km":482.08218421761,"apogee_km":484.02390099967,"semimajor_km":6861.1900426086,"source":"CELESTRAK","updated_at":"2026-05-25T13:38:18.823651Z"}}}